sat.trackr.live / text

‹ back to catalog

STARLINK-36964

NORAD 68184 · 2026-050T

PAYLOAD ACTIVE UNKNOWN

§ Identity

Operator
Country
US
Launch date
2026-03-14
Launch site
AFETR
Launch vehicle
Mass (kg)
RCS (m²)

Purposes: comms

External: N2YO · Heavens-Above · Gunter

§ Orbital elements

Epoch: 2026-09-19T21:26:58.138080Z

Period
93.85 min
Inclination
53.1590°
Eccentricity
0.0001004
Mean motion
15.34392753 rev/d
Perigee alt
462.0 km
Apogee alt
463.4 km
Semi-major
6,840.9 km
B*
4.6769e-4
RAAN
80.6466°
Arg perigee
85.2797°
Mean anomaly
274.8320°
Rev number
3,047

§ Raw data

STARLINK-369641 68184U 26050T   26262.89372845  .00015454  00000+0  46769-3 0  99972 68184  53.1590  80.6466 0001004  85.2797 274.8320 15.34392753 30477

JSON: /api/v1/satellites/68184 · /tle

For live sub-satellite position, see the globe view (requires WebGL).

§ Visibility from observer

Set your observer location to see the next 7 days of passes ≥ 10°. The values pass through the URL so the page stays shareable.

No JS? Fill the form by hand. The geolocation button needs JavaScript.